TimeCST,TemperatureF,Dew PointF,Humidity,Sea Level PressureIn,VisibilityMPH,Wind Direction,Wind SpeedMPH,Gust SpeedMPH,PrecipitationIn,Events,Conditions,WindDirDegrees,DateUTC
12:14 AM,-20.2,-27.4,69,30.25,10.0,West,8.1,-,N/A,,Clear,270,2013-01-21 06:14:00
12:35 AM,-20.2,-27.4,69,30.24,10.0,West,10.4,-,N/A,,Clear,270,2013-01-21 06:35:00
12:54 AM,-20.2,-27.4,69,30.24,10.0,West,8.1,-,N/A,,Clear,280,2013-01-21 06:54:00
1:14 AM,-20.2,-27.4,69,30.24,10.0,West,8.1,-,N/A,,Clear,270,2013-01-21 07:14:00
1:35 AM,-20.2,-27.4,69,30.24,10.0,West,9.2,-,N/A,,Clear,270,2013-01-21 07:35:00
1:54 AM,-20.2,-27.4,69,30.24,10.0,West,8.1,-,N/A,,Clear,270,2013-01-21 07:54:00
2:14 AM,-20.2,-27.4,69,30.24,10.0,West,8.1,-,N/A,,Clear,270,2013-01-21 08:14:00
2:34 AM,-22.0,-27.4,76,30.25,10.0,West,6.9,-,N/A,,Clear,270,2013-01-21 08:34:00
2:54 AM,-22.0,-27.4,76,30.24,10.0,West,9.2,-,N/A,,Clear,270,2013-01-21 08:54:00
3:15 AM,-20.2,-27.4,69,30.24,10.0,West,5.8,-,N/A,,Clear,270,2013-01-21 09:15:00
3:34 AM,-22.0,-27.4,76,30.23,10.0,West,8.1,-,N/A,,Clear,270,2013-01-21 09:34:00
3:55 AM,-22.0,-29.2,69,30.23,7.0,West,5.8,-,N/A,,Clear,270,2013-01-21 09:55:00
4:14 AM,-22.0,-27.4,76,30.23,10.0,West,8.1,-,N/A,,Clear,270,2013-01-21 10:14:00
4:55 AM,-22.0,-27.4,76,30.22,10.0,West,5.8,-,N/A,,Clear,260,2013-01-21 10:55:00
5:14 AM,-20.2,-27.4,69,30.22,10.0,West,6.9,-,N/A,,Clear,270,2013-01-21 11:14:00
5:34 AM,-22.0,-27.4,76,30.21,10.0,West,8.1,-,N/A,,Clear,270,2013-01-21 11:34:00
5:54 AM,-22.0,-27.4,76,30.21,10.0,West,8.1,-,N/A,,Clear,280,2013-01-21 11:54:00
6:14 AM,-22.0,-29.2,69,30.22,10.0,West,5.8,-,N/A,,Clear,280,2013-01-21 12:14:00
6:35 AM,-22.0,-29.2,69,30.22,7.0,West,4.6,-,N/A,,Clear,270,2013-01-21 12:35:00
6:54 AM,-22.0,-29.2,69,30.21,10.0,West,6.9,-,N/A,,Clear,270,2013-01-21 12:54:00
7:14 AM,-22.0,-29.2,69,30.21,10.0,West,6.9,-,N/A,,Clear,260,2013-01-21 13:14:00
7:35 AM,-22.0,-27.4,76,30.21,10.0,West,9.2,-,N/A,,Clear,270,2013-01-21 13:35:00
7:54 AM,-22.0,-27.4,76,30.21,10.0,West,6.9,-,N/A,,Clear,260,2013-01-21 13:54:00
8:14 AM,-20.2,-27.4,69,30.21,10.0,West,5.8,-,N/A,,Clear,260,2013-01-21 14:14:00
8:35 AM,-20.2,-27.4,69,30.22,10.0,West,6.9,-,N/A,,Clear,270,2013-01-21 14:35:00
8:54 AM,-20.2,-27.4,69,30.21,10.0,West,5.8,-,N/A,,Clear,260,2013-01-21 14:54:00
9:14 AM,-20.2,-27.4,69,30.21,10.0,West,6.9,-,N/A,,Clear,270,2013-01-21 15:14:00
9:35 AM,-20.2,-27.4,69,30.22,10.0,West,9.2,-,N/A,,Clear,270,2013-01-21 15:35:00
9:54 AM,-18.4,-25.6,70,30.22,10.0,West,8.1,-,N/A,,Clear,270,2013-01-21 15:54:00
10:14 AM,-18.4,-25.6,70,30.22,10.0,West,9.2,-,N/A,,Clear,270,2013-01-21 16:14:00
10:35 AM,-18.4,-25.6,70,30.22,10.0,West,9.2,-,N/A,,Clear,280,2013-01-21 16:35:00
10:54 AM,-18.4,-25.6,70,30.23,10.0,West,8.1,-,N/A,,Clear,280,2013-01-21 16:54:00
11:14 AM,-16.6,-23.8,70,30.22,10.0,West,8.1,-,N/A,,Clear,280,2013-01-21 17:14:00
11:34 AM,-16.6,-23.8,70,30.22,10.0,West,9.2,-,N/A,,Clear,270,2013-01-21 17:34:00
11:54 AM,-16.6,-23.8,70,30.21,10.0,West,8.1,-,N/A,,Clear,270,2013-01-21 17:54:00
12:15 PM,-14.8,-22.0,70,30.21,10.0,West,11.5,17.3,N/A,,Clear,270,2013-01-21 18:15:00
12:34 PM,-14.8,-22.0,70,30.21,10.0,West,10.4,-,N/A,,Clear,270,2013-01-21 18:34:00
12:54 PM,-13.0,-20.2,70,30.20,10.0,West,11.5,-,N/A,,Clear,270,2013-01-21 18:54:00
1:14 PM,-13.0,-20.2,70,30.20,10.0,West,11.5,18.4,N/A,,Clear,270,2013-01-21 19:14:00
1:34 PM,-11.2,-20.2,64,30.19,10.0,West,11.5,-,N/A,,Clear,280,2013-01-21 19:34:00
1:55 PM,-11.2,-20.2,64,30.19,10.0,West,11.5,17.3,N/A,,Clear,280,2013-01-21 19:55:00
2:14 PM,-11.2,-20.2,64,30.19,10.0,West,10.4,18.4,N/A,,Clear,280,2013-01-21 20:14:00
2:34 PM,-11.2,-20.2,64,30.19,10.0,West,13.8,19.6,N/A,,Clear,280,2013-01-21 20:34:00
2:55 PM,-11.2,-20.2,64,30.19,10.0,West,12.7,19.6,N/A,,Clear,280,2013-01-21 20:55:00
3:14 PM,-11.2,-20.2,64,30.19,10.0,West,13.8,23.0,N/A,,Clear,280,2013-01-21 21:14:00
3:34 PM,-11.2,-20.2,64,30.19,10.0,West,13.8,21.9,N/A,,Clear,280,2013-01-21 21:34:00
3:55 PM,-11.2,-20.2,64,30.20,10.0,West,12.7,18.4,N/A,,Clear,280,2013-01-21 21:55:00
4:14 PM,-11.2,-20.2,64,30.20,10.0,WNW,13.8,20.7,N/A,,Clear,290,2013-01-21 22:14:00
4:34 PM,-11.2,-20.2,64,30.20,10.0,WNW,13.8,19.6,N/A,,Clear,290,2013-01-21 22:34:00
4:55 PM,-13.0,-20.2,70,30.20,10.0,WNW,12.7,18.4,N/A,,Clear,290,2013-01-21 22:55:00
5:14 PM,-13.0,-22.0,64,30.20,10.0,West,11.5,18.4,N/A,,Clear,280,2013-01-21 23:14:00
5:34 PM,-14.8,-22.0,70,30.21,10.0,WNW,10.4,16.1,N/A,,Clear,290,2013-01-21 23:34:00
5:55 PM,-14.8,-23.8,64,30.21,10.0,WNW,8.1,-,N/A,,Clear,290,2013-01-21 23:55:00
6:14 PM,-14.8,-23.8,64,30.21,10.0,WNW,9.2,-,N/A,,Clear,290,2013-01-22 00:14:00
6:35 PM,-14.8,-23.8,64,30.21,10.0,WNW,9.2,-,N/A,,Clear,290,2013-01-22 00:35:00
6:54 PM,-16.6,-23.8,70,30.21,10.0,WNW,8.1,-,N/A,,Clear,290,2013-01-22 00:54:00
7:14 PM,-16.6,-23.8,70,30.22,10.0,West,6.9,-,N/A,,Clear,280,2013-01-22 01:14:00
7:34 PM,-16.6,-23.8,70,30.22,10.0,West,6.9,-,N/A,,Clear,270,2013-01-22 01:34:00
7:54 PM,-16.6,-23.8,70,30.22,10.0,West,8.1,-,N/A,,Clear,270,2013-01-22 01:54:00
8:14 PM,-16.6,-23.8,70,30.22,10.0,West,5.8,-,N/A,,Clear,270,2013-01-22 02:14:00
8:34 PM,-16.6,-23.8,70,30.22,10.0,West,6.9,-,N/A,,Clear,270,2013-01-22 02:34:00
8:54 PM,-16.6,-23.8,70,30.22,10.0,West,6.9,-,N/A,,Clear,270,2013-01-22 02:54:00
9:14 PM,-18.4,-23.8,76,30.21,10.0,West,6.9,-,N/A,,Clear,270,2013-01-22 03:14:00
9:34 PM,-18.4,-23.8,76,30.21,10.0,West,6.9,-,N/A,,Clear,270,2013-01-22 03:34:00
9:54 PM,-18.4,-25.6,70,30.21,10.0,West,6.9,-,N/A,,Clear,270,2013-01-22 03:54:00
10:14 PM,-18.4,-25.6,70,30.22,10.0,West,5.8,-,N/A,,Clear,260,2013-01-22 04:14:00
10:34 PM,-18.4,-25.6,70,30.22,10.0,West,5.8,-,N/A,,Clear,270,2013-01-22 04:34:00
10:54 PM,-18.4,-25.6,70,30.23,10.0,West,5.8,-,N/A,,Clear,260,2013-01-22 04:54:00
11:14 PM,-18.4,-25.6,70,30.23,10.0,West,4.6,-,N/A,,Clear,260,2013-01-22 05:14:00
11:34 PM,-18.4,-25.6,70,30.23,10.0,West,5.8,-,N/A,,Clear,260,2013-01-22 05:34:00
11:54 PM,-18.4,-25.6,70,30.24,10.0,WSW,5.8,-,N/A,,Clear,250,2013-01-22 05:54:00